Location: Newark
(27.9675°N, 86.8869°E)
Time: 19:18:31
(UTC+00:00)

deb Explorer IX - Pass Details

Date: 26 October 2019
Orbit: 546 x 1105 km, 38.8° (Epoch: 12 November)

Event Time Altitude Azimuth Distance (km) Brightness Sun altitude
Rises 13:03:32 0° 271° (W) 3,660 ? -20.5°
Reaches altitude 10° 13:08:42 10° 237° (WSW) 2,832 ? -21.6°
Maximum altitude 13:10:21 11° 223° (SW) 2,795 ? -22.0°
Drops below altitude 10° 13:12:02 10° 209° (SSW) 2,888 ? -22.4°
Sets 13:17:34 0° 176° (S) 3,897 ? -23.6°
